STARLINK-3796, 52372

Orbit data source: Space-Track

STARLINK-3796, 52372 is a payload satellite owned by SpaceX/Seattle (US) in LEO that was launched on Fri, 29 Apr 2022 UTC via an FALCON 9 launch vehicle from the Air Force Eastern Test Range (AFETR). Payload-class satellites include a variety of spacecraft equipped with specific instruments for various scientific and technological missions. These include communications satellites like Starlink; space stations such as the ISS; scientific satellites like the Hubble; Earth observation satellites from companies like Planet Labs, Umbra, and HawkEye 360; GPS; miniature CubeSats for education and research; and military/defense satellites.

Loading next visibility...
Identifier
52372, 2022-045AT
Orbit
LEO
Country
Flag of USUS
Related business
Manufacturer
SpaceX/Seattle
Mission
Operational Commercial Communications
Bus & Motor
STARLINK, Unknown motor
Mass
297 kg wet, ~275 kg dry
Launch date (UTC)
2022-04-29 (4 years ago)
Launch vehicle
FALCON 9
Launch site
Air Force Eastern Test Range (AFETR)
Object type
Payload
Rocket body
Debris
Shape & HBR
Box + 1 Pan, 10.1 m
Radar Cross Section
11.087 m², Large (>1 m²)

Expand to show TLE details & history
Last TLE update: 7 hours ago

TLE from 7 hours ago
0 STARLINK-3796
1 52372U 22045AT  26119.83086066  .00000349  00000-0  40037-4 0  9992
2 52372  53.2176 319.5385 0001269  89.9389 270.1749 15.08837432223630
Epoch: 2026-04-29T19:56Z
TLE epoch observation values (Epoch: 2026-04-29T19:56:26.361Z)
Latitude
0.00004°
Longitude
162.64251°
Altitude
540.646 km
Speed
7.593 km/s
True Right ascension
21h 18m 09s
True Declination
0° 00' 00"
Sunlit
Object was in daylight at epoch
Visualization orbit readout
Latitude
Unknown
Longitude
Unknown
Altitude
Unknown
Speed
Unknown
Apparent Right ascension
Unknown
Apparent Declination
Unknown
Sunlit
N/A
Visualization observer readout
Local Sidereal Time
10:28:27
Azimuth
Unknown
Elevation
Unknown
Doppler factor
Unknown
Orbital elements
Apogee altitude
540.874 km
Perigee altitude
539.118 km
Semi-major axis
6,918.133 km
Eccentricity
0.00013
Inclination
53.2176°
RAAN
319.5385°
Arg. of periapsis
89.9389°
True anomaly
270.16036°
Mean anomaly
270.1749°
Eccentric anomaly
270.16763°
Mean motion
3.7719 °/min
Orbital period
95.44 mins
BSTAR
0.000040037
Loading maneuver chart data...
Computing Atmospheric mass density...
Loading historical data...
Loading historical data...
Loading historical data...
Loading historical data...
Loading historical data...
Loading historical data...
Loading historical data...

Documentation

Showing up to 5 results
|